Location: Chemnitz
(49.5500°N, 11.5830°E)
Time: 08:44:40
(UTC+02:00)

ISS - Visible Passes

Search period start: 24 September 2017 00:00
Search period end: 04 October 2017 00:00
Orbit: 401 x 407 km, 51.6° (Epoch: 24 September)

Date Brightness Start Highest point End Pass type
(mag) Time Alt. Az. Time Alt. Az. Time Alt. Az.
25 Sep -1.0 21:19:18 10° SW 21:19:31 11° SW 21:19:31 11° SW visible
26 Sep -2.4 20:27:30 10° SSW 20:29:53 23° SSE 20:29:53 23° SSE visible
27 Sep -1.8 19:36:09 10° S 19:38:02 15° SE 19:39:56 10° ESE visible
27 Sep -2.5 21:10:47 10° WSW 21:12:44 33° SW 21:12:44 33° SW visible
28 Sep -3.4 20:18:37 10° SW 20:21:45 42° SSE 20:22:45 31° ESE visible
28 Sep -0.8 21:54:53 10° W 21:55:24 14° W 21:55:24 14° W visible
29 Sep -2.6 19:26:41 10° SSW 19:29:30 27° SE 19:32:20 10° E visible
29 Sep -3.4 21:02:28 10° WSW 21:05:17 62° W 21:05:17 62° W visible
30 Sep -3.9 20:10:06 10° WSW 20:13:22 73° SSE 20:15:02 26° ENE visible
30 Sep -1.0 21:46:42 10° W 21:47:42 18° WNW 21:47:42 18° WNW visible
01 Oct -3.4 19:17:51 10° SW 19:21:02 49° SSE 19:24:13 10° ENE visible
01 Oct -3.5 20:54:13 10° W 20:57:23 62° NNW 20:57:23 62° NNW visible
02 Oct -3.8 20:01:45 10° W 20:05:02 76° NNW 20:07:01 22° ENE visible
02 Oct -1.1 21:38:26 10° WNW 21:39:39 20° WNW 21:39:39 20° WNW visible
03 Oct -3.5 20:45:57 10° W 20:49:13 57° N 20:49:14 57° N visible
